Lapse_Rate
5.0 5.1 5.3 5.2 5.3 5.2 5.3 5.0 4.8 5.0 5.0 5.0 5.1 5.9 6.3 6.8 6.9 6.9 6.8 6.6 6.1 5.7 5.7 5.9 5.6 5.3 5.0 5.4 5.1 5.3 4.5 4.5 5.3 5.2 5.2 5.0 5.2 5.1 4.6 5.1 5.3 5.7 5.8
5.0 5.2 5.5 5.2 4.9 4.8 4.8 5.0 4.9 5.1 5.0 4.8 4.9 5.0 5.7 6.5 7.2 7.0 6.8 6.6 6.5 5.8 5.5 5.5 5.6 5.1 4.9 5.4 5.1 5.1 5.0 4.4 5.3 5.1 5.0 4.5 4.5 4.6 4.3 4.9 5.4 5.5 5.8
5.1 5.3 5.2 5.2 5.0 4.9 4.7 4.4 4.8 4.5 4.8 4.4 4.6 4.9 5.2 6.2 6.5 7.0 6.9 6.7 6.6 5.9 5.4 5.1 5.3 5.1 4.8 4.9 5.2 4.7 4.9 4.7 4.6 5.0 4.8 4.7 4.7 4.5 4.3 4.8 5.1 5.5 5.8
5.1 5.2 5.3 5.2 5.2 5.0 5.1 4.8 4.6 4.6 4.4 4.4 4.3 4.8 5.2 5.5 6.1 6.4 6.7 6.7 6.5 6.2 5.7 5.1 5.1 4.9 4.9 5.0 5.2 5.3 4.9 5.3 4.4 5.5 4.7 5.1 5.5 4.8 4.5 4.4 5.0 5.2 5.7
5.1 5.2 5.1 5.2 5.3 5.2 5.1 5.1 4.9 4.7 4.7 4.7 4.8 4.9 5.2 5.3 5.6 6.0 6.3 6.2 6.2 6.3 6.0 5.5 5.0 4.9 4.7 4.9 4.9 4.8 5.3 5.2 4.8 5.1 5.3 5.2 5.1 5.4 6.3 5.7 4.6 4.5 5.4
5.2 5.3 5.1 4.9 5.0 5.1 5.0 5.0 5.1 5.0 4.5 5.1 5.0 4.9 5.1 5.4 5.4 5.6 6.0 6.1 5.8 5.8 6.2 5.9 5.3 4.9 4.9 4.8 4.8 5.2 4.6 5.6 5.3 5.0 5.3 4.7 5.1 4.6 5.0 5.4 5.3 5.3 5.3
5.0 5.1 5.1 5.0 5.0 5.2 5.1 5.0 5.2 5.3 4.7 4.4 5.0 5.1 5.1 5.2 5.6 6.0 5.7 5.9 6.0 5.7 5.5 5.9 5.6 5.0 4.9 4.9 4.7 5.0 4.4 5.3 5.2 4.7 5.3 4.6 4.9 5.2 5.2 5.4 5.3 5.4 6.3
4.9 4.8 5.0 5.0 4.7 5.1 5.0 5.1 5.1 4.9 4.6 4.0 4.5 4.9 5.3 5.4 5.4 5.8 6.0 6.0 5.7 5.7 5.3 5.2 5.8 5.5 5.0 4.9 4.8 4.3 5.2 5.1 5.1 5.5 4.7 4.8 5.1 5.0 5.1 5.2 5.1 4.8 5.4
4.4 4.7 5.0 5.2 5.0 5.3 5.2 5.3 4.9 4.4 4.5 4.0 4.2 4.7 4.8 5.0 5.0 5.0 5.2 5.6 5.9 5.2 5.3 4.9 5.3 5.8 5.9 5.1 4.8 4.6 5.0 5.0 5.5 5.5 4.7 4.9 5.0 5.0 5.3 4.9 4.9 4.9 5.3
4.3 4.7 5.3 5.2 5.0 5.3 4.9 4.9 4.7 4.4 4.4 4.1 4.3 4.3 4.2 4.2 4.1 4.2 4.2 4.2 5.0 5.4 5.1 4.8 4.7 5.5 6.4 5.9 4.7 4.6 4.8 4.7 5.1 5.4 5.2 4.8 4.9 5.0 5.0 4.7 5.2 4.8 5.3
4.4 4.8 5.1 5.1 5.0 5.3 5.1 4.9 4.6 4.3 4.2 4.1 4.5 4.3 4.2 4.3 4.1 4.1 4.7 4.8 4.5 4.9 5.2 4.9 4.4 5.2 5.9 6.6 5.2 4.6 4.8 4.7 5.0 5.0 5.4 4.9 4.9 5.2 4.9 4.8 5.0 4.9 4.7
4.8 5.0 5.3 5.2 5.0 5.4 5.4 5.2 4.6 4.1 3.8 4.0 4.3 4.4 4.5 4.5 4.5 5.5 5.8 5.7 5.9 5.8 5.1 4.8 4.1 4.7 5.9 6.8 6.0 4.5 4.8 4.8 5.0 5.3 5.3 5.2 5.1 5.0 5.2 4.8 4.8 5.0 4.7
4.6 4.7 4.8 4.8 5.0 5.4 5.7 5.0 4.5 3.9 3.6 3.8 4.2 4.4 4.5 4.4 5.3 6.0 6.0 6.2 6.4 5.7 5.3 4.8 4.0 4.3 5.0 6.4 6.1 4.9 4.8 4.5 4.7 4.8 5.1 5.1 5.0 5.2 5.0 4.9 4.8 5.1 5.0
4.7 4.9 4.9 5.0 5.0 5.1 5.4 4.8 4.2 3.7 3.5 3.7 4.0 4.2 4.1 4.9 5.4 5.6 6.0 6.2 6.4 5.9 5.2 4.8 4.3 4.2 4.5 5.8 5.8 5.0 4.4 4.3 4.0 4.8 4.6 4.9 4.8 5.1 4.9 5.2 4.7 4.8 5.0
4.8 4.8 4.7 4.8 4.8 4.9 5.0 4.5 4.0 3.6 3.4 3.7 4.1 4.1 4.1 4.8 5.3 5.5 5.5 5.9 6.4 6.2 5.6 4.9 4.3 4.5 4.3 5.4 5.5 4.9 4.5 3.7 4.4 4.5 4.3 4.7 4.6 5.0 4.9 4.8 4.8 5.0 5.1
4.5 4.7 4.7 4.6 4.7 4.8 4.8 4.4 4.0 3.5 3.2 3.5 4.2 4.1 4.3 4.6 4.9 5.1 5.4 5.5 6.2 6.4 6.1 5.4 4.5 4.8 4.5 5.0 5.3 4.9 4.6 4.1 4.3 4.3 4.5 4.6 4.8 4.9 4.6 5.0 4.9 5.1 5.0
4.4 4.6 4.7 4.6 4.7 4.6 4.6 4.4 3.9 3.4 3.2 3.5 4.3 4.1 4.3 4.6 4.5 4.8 5.1 5.5 5.8 6.0 6.1 5.6 4.6 4.9 4.9 5.0 4.9 5.2 4.5 4.1 4.3 4.5 4.4 4.9 4.7 5.2 4.8 4.8 5.0 5.0 4.8
4.3 4.7 4.8 4.5 4.5 4.4 4.4 4.2 3.6 3.3 3.2 3.5 4.2 4.1 4.2 4.4 4.2 4.7 4.9 5.2 5.6 5.5 5.6 5.4 4.7 4.5 4.9 5.0 4.7 5.4 4.6 4.2 4.0 4.3 4.2 4.5 4.4 4.7 5.1 5.0 4.7 5.0 4.9
4.9 4.9 4.9 4.6 4.6 4.4 4.3 4.0 3.5 3.3 3.1 3.3 4.2 4.0 4.2 4.2 4.2 4.1 4.4 4.9 5.5 5.5 5.2 5.1 4.7 4.4 4.7 5.2 4.8 5.5 4.5 4.4 4.5 3.7 3.7 4.2 4.1 4.7 5.0 5.0 4.8 4.8 5.1
5.3 5.1 4.9 4.7 4.8 4.6 4.2 3.8 3.5 3.1 3.2 3.4 3.9 3.9 4.1 4.2 4.1 3.9 4.4 4.8 5.3 5.5 4.8 5.0 4.7 4.5 4.6 5.2 5.1 5.6 4.9 4.5 4.3 4.2 4.2 4.3 4.2 4.8 5.0 4.8 5.0 5.2 5.0
4.8 4.5 4.5 4.6 4.5 4.6 4.1 3.8 3.4 3.2 3.1 3.4 3.8 4.0 4.0 4.3 4.2 3.9 4.6 4.9 5.6 5.6 5.4 5.2 4.9 4.4 4.7 5.0 5.4 5.7 5.4 4.6 4.1 3.9 4.3 3.8 3.8 5.2 5.2 5.1 5.1 5.1 5.3
4.4 4.2 4.3 4.4 4.2 4.4 4.0 3.7 3.4 3.4 3.2 3.4 3.8 4.1 4.2 4.4 4.3 4.1 4.7 5.2 5.7 5.8 5.8 5.4 5.2 4.8 4.7 4.9 5.4 5.9 5.6 4.6 4.2 4.1 3.7 3.5 4.5 4.3 5.0 5.0 5.4 5.0 5.2
4.3 4.0 4.3 4.3 3.9 4.2 3.7 3.6 3.4 3.2 3.4 3.3 4.0 4.2 4.3 4.6 4.5 4.1 4.7 5.3 5.6 5.8 5.9 5.9 5.3 5.0 4.8 4.7 5.4 6.2 6.2 5.0 4.4 3.8 3.6 4.0 4.4 4.2 4.7 4.6 5.0 5.0 5.0
4.6 4.0 4.4 4.4 4.0 4.1 3.6 3.4 3.1 2.9 3.4 3.3 4.1 4.3 4.4 4.6 4.7 4.5 4.6 5.2 5.3 5.5 5.5 5.9 5.2 4.9 4.9 4.8 5.6 6.4 6.5 5.3 4.5 4.0 3.9 4.4 4.6 4.3 4.7 4.6 4.4 4.6 5.1
4.3 4.4 4.3 4.4 4.1 3.9 3.6 3.1 2.9 2.9 3.3 3.4 4.1 4.4 4.4 4.5 4.7 4.5 4.7 5.0 5.0 5.0 5.1 5.4 5.2 4.8 5.0 5.3 5.9 6.5 6.6 6.0 4.9 4.2 3.8 4.5 4.4 4.6 4.4 4.4 4.6 4.8 4.8
3.9 4.4 4.2 4.1 4.0 3.8 3.5 3.0 3.0 2.8 2.9 3.6 4.2 4.6 4.7 4.6 4.7 4.5 4.6 4.8 4.7 5.1 5.2 4.9 4.6 4.6 4.6 5.4 5.9 6.5 6.6 6.4 5.4 4.2 3.8 4.5 4.9 4.8 4.4 4.5 4.5 4.4 5.0
Wind_Speed
11 10 11 12 14 14 13 13 11 12 11 11 11 11 10 11 10 14 16 17 14 14 14 11 10 10 7 6 9 9 6 2 13 11 11 9 12 13 12 15 14 20 22
10 9 9 11 13 14 14 12 11 13 13 10 10 11 11 11 11 15 15 16 15 14 14 11 9 9 7 7 7 8 5 0 8 12 11 7 4 3 12 11 12 18 22
13 10 10 12 13 15 14 12 12 14 13 14 11 10 10 11 11 10 9 11 15 15 15 15 11 10 8 6 6 8 7 2 6 22 12 8 7 10 3 13 12 15 11
13 11 11 13 14 15 13 12 13 15 15 15 14 17 13 13 11 11 11 11 17 17 16 16 14 10 8 9 6 7 8 6 6 13 12 13 16 14 6 8 11 12 15
11 13 14 13 13 12 12 12 15 17 17 16 16 13 15 13 11 11 15 14 13 17 17 16 14 11 8 10 8 8 9 8 5 12 13 9 13 12 11 11 9 9 9
10 11 13 12 13 11 12 14 18 18 18 17 19 19 19 17 13 13 12 11 10 10 12 15 13 12 11 10 8 8 11 11 8 7 16 14 17 14 17 15 13 12 9
10 10 11 11 11 11 13 17 18 18 19 19 19 20 20 19 19 17 13 14 11 11 12 12 12 11 12 11 9 9 9 12 10 4 10 14 16 14 17 16 15 10 2
9 9 10 10 11 14 17 18 18 19 19 20 20 19 20 13 13 14 13 12 12 12 14 13 13 14 14 12 11 7 8 10 10 12 9 13 14 13 14 15 16 9 2
8 9 10 11 13 14 16 17 18 19 20 20 18 18 17 19 16 19 16 12 14 12 16 16 16 15 15 15 13 8 9 9 11 10 11 12 13 14 14 15 17 19 11
10 12 12 12 13 14 16 17 18 20 20 19 18 16 17 17 17 17 19 18 17 17 17 17 17 16 16 16 14 10 9 10 10 10 13 14 13 15 15 16 16 14 16
13 12 12 12 13 14 15 17 18 19 19 18 18 17 16 17 17 17 18 19 19 18 18 18 18 18 17 17 14 14 12 11 11 14 12 15 18 14 15 15 15 14 13
13 11 13 12 13 15 15 16 18 18 18 18 18 18 17 17 17 17 19 18 19 18 19 19 19 19 19 18 17 17 12 14 15 17 13 18 13 20 19 16 19 15 14
12 13 13 12 13 15 15 16 18 18 17 18 18 19 18 18 19 19 18 18 18 18 19 18 20 20 20 19 18 17 15 13 13 15 13 18 19 18 16 18 17 15 12
11 11 10 11 14 14 15 17 18 17 17 18 18 19 19 18 18 18 18 17 19 19 18 18 19 19 20 19 19 17 16 15 13 13 15 15 22 20 19 19 20 16 14
10 10 11 12 14 15 16 17 18 18 17 18 18 19 19 18 18 18 19 17 18 19 18 18 19 18 19 15 20 18 16 15 15 14 14 12 25 26 24 15 19 19 15
15 12 12 15 16 16 16 17 18 18 17 18 18 18 19 19 18 18 18 18 18 19 18 19 18 18 14 25 27 21 15 16 14 14 14 13 23 23 27 23 25 26 20
14 11 12 12 14 15 16 16 18 18 18 18 19 18 19 18 18 18 18 18 18 17 19 18 18 19 20 28 28 28 16 15 13 14 14 10 16 23 21 22 21 24 30
10 10 10 11 15 16 17 17 17 16 17 18 18 17 18 18 19 18 17 18 16 17 16 18 18 17 16 27 29 29 19 16 16 13 14 11 17 22 23 20 16 18 16
8 9 9 12 12 15 16 16 18 17 17 18 17 17 18 18 18 18 16 16 15 16 16 16 17 17 18 27 28 25 18 17 17 14 14 14 13 26 30 21 19 17 13
8 8 10 11 10 14 16 16 18 17 18 18 18 18 19 19 18 17 15 14 15 16 13 14 16 21 18 26 28 24 13 15 13 14 14 20 15 29 30 22 19 18 15
8 9 9 11 11 12 13 16 17 18 18 18 19 18 18 18 18 13 11 10 12 13 14 15 14 16 19 19 29 31 17 12 11 11 11 10 19 30 32 29 20 22 17
8 10 10 12 13 12 10 15 16 17 18 17 19 17 18 15 8 10 9 9 11 12 12 13 12 12 15 25 26 31 31 23 12 11 9 10 17 32 34 25 26 26 22
8 9 9 13 13 12 11 14 17 18 19 18 17 17 18 15 10 9 10 8 10 10 11 11 11 10 12 12 28 29 30 29 13 9 10 8 23 31 28 33 25 28 14
8 9 9 13 14 13 14 14 17 18 18 17 17 16 14 14 10 8 8 9 10 10 10 11 10 10 11 12 12 14 16 24 17 15 7 7 19 27 23 19 18 14 13
9 9 9 11 14 14 15 15 16 17 17 16 16 14 11 12 10 11 9 9 12 12 10 10 10 11 11 13 18 17 14 13 16 13 7 7 10 15 13 12 13 11 12
10 10 10 11 14 14 15 16 16 16 16 16 13 11 11 10 9 8 9 20 19 21 22 20 14 11 17 21 25 27 24 20 21 11 8 6 11 13 12 13 12 10 15
Wind_Direction
286 283 263 246 235 237 237 247 271 291 308 308 308 305 301 296 290 288 289 290 289 290 290 287 288 293 292 300 300 299 291 345 174 145 138 146 154 159 159 158 160 157 162
276 273 255 238 236 242 244 256 274 294 301 300 297 293 295 293 289 288 283 280 280 282 284 284 285 283 288 291 288 296 299 354 215 152 137 148 150 141 158 165 167 159 165
266 267 251 241 238 242 244 254 283 303 299 295 298 288 283 277 273 270 277 271 277 278 278 279 279 280 279 278 285 292 296 245 242 172 158 157 175 141 179 166 160 159 163
247 259 261 253 247 250 251 257 292 302 300 305 293 288 285 283 280 282 281 279 278 277 274 274 273 273 274 273 268 275 274 284 236 189 172 180 149 163 157 168 162 159 163
257 259 260 260 265 261 257 270 293 300 302 299 290 283 280 278 281 278 279 276 275 272 272 271 270 267 264 265 263 263 270 271 270 219 165 161 163 153 161 154 155 156 161
261 263 272 276 268 267 267 275 296 299 296 290 286 281 278 279 278 275 278 277 272 272 269 268 269 265 261 259 260 260 264 277 272 257 174 165 172 169 164 158 162 160 164
269 276 275 280 275 274 287 296 294 293 291 288 288 285 281 278 277 276 275 273 272 269 266 264 266 266 262 255 251 247 258 263 268 303 205 172 177 168 167 162 164 156 140
275 275 281 286 282 290 297 296 294 294 292 290 285 285 283 280 276 270 270 268 267 264 266 267 264 264 265 260 254 248 251 255 274 255 222 187 174 174 168 164 158 143 124
283 289 296 293 295 296 296 297 297 295 293 292 288 282 277 273 273 274 272 268 264 262 258 260 262 261 259 258 254 249 243 255 264 259 224 199 174 172 167 164 172 165 164
294 295 299 302 302 301 302 300 296 295 296 292 284 279 275 274 272 273 270 268 264 259 258 256 257 257 254 255 252 250 248 255 254 269 242 188 173 175 165 171 178 182 177
298 296 301 303 301 301 301 302 297 297 295 293 289 282 278 275 271 265 265 264 262 256 250 247 250 251 251 250 245 244 239 244 250 260 254 178 179 176 169 172 178 179 175
282 294 300 300 301 306 299 299 298 296 296 296 289 283 280 276 271 264 261 260 258 254 250 246 245 244 246 244 245 245 237 226 240 252 270 175 181 175 171 168 178 179 174
275 298 300 298 302 305 303 301 298 297 298 294 287 284 279 274 269 264 259 255 254 249 247 243 241 240 240 239 241 241 238 241 242 236 261 182 175 176 172 172 175 177 174
283 283 282 291 308 307 304 304 300 299 297 291 287 283 280 274 269 265 259 251 248 246 240 237 239 239 237 236 238 237 241 237 240 249 243 206 179 174 175 175 175 172 171
296 284 290 308 309 308 306 303 301 300 296 290 285 282 281 277 269 263 257 250 244 243 238 233 234 235 234 232 230 231 234 232 237 243 247 245 183 175 174 179 173 171 164
309 301 298 313 311 308 305 303 302 297 298 292 284 285 282 278 271 264 254 244 240 236 233 229 227 228 230 229 226 228 228 230 230 229 245 259 185 176 177 182 179 172 170
304 296 307 307 304 304 304 299 300 299 295 290 289 286 285 278 274 265 252 242 234 230 228 225 223 224 227 225 227 226 232 238 230 232 234 264 187 178 175 182 182 184 180
291 303 306 300 300 302 302 303 302 296 297 291 290 293 287 283 280 273 248 239 230 226 222 222 219 220 224 223 223 223 226 230 237 231 237 246 196 181 176 176 175 185 192
284 283 286 289 293 295 299 303 303 300 300 297 298 294 294 283 280 271 272 233 225 222 219 217 216 216 222 221 218 217 220 227 230 227 230 230 214 179 174 171 174 177 186
268 277 288 289 292 298 309 308 305 302 303 302 300 298 290 286 278 268 273 239 224 222 218 214 214 215 220 219 219 215 223 223 224 223 224 243 270 175 174 174 173 174 174
293 304 304 296 296 299 303 307 307 300 305 304 302 297 294 285 273 267 270 241 217 218 216 213 212 216 220 217 216 216 216 218 218 220 214 231 255 174 176 177 180 181 163
321 320 311 303 305 301 304 300 301 303 309 305 304 302 301 298 244 251 248 232 218 212 211 211 212 213 219 217 218 214 213 214 220 216 211 218 246 179 177 177 181 165 159
316 314 302 301 304 306 308 303 302 310 309 312 307 308 304 302 237 232 232 226 215 211 210 210 211 209 210 215 214 213 213 216 216 219 210 270 205 179 180 184 170 155 161
318 314 305 305 309 312 311 300 303 311 313 316 313 308 304 303 231 222 220 220 215 212 208 210 210 207 206 206 207 207 209 213 217 219 233 241 194 177 183 179 163 169 168
317 314 304 305 306 309 308 306 305 308 322 319 315 310 306 300 296 222 209 216 220 215 212 210 210 206 209 205 204 199 203 197 204 202 219 241 187 179 180 173 168 167 169
319 310 311 311 310 312 310 309 307 319 325 324 317 316 312 307 292 260 206 218 223 218 219 217 214 215 217 212 201 207 206 200 187 185 201 228 188 178 169 164 164 170 170